Monticello, NY

8:41 AM EST on December 06, 2019 (GMT -0500)
Sullivan County International

Weather History for KMSV - November, 2019

Change the Weather History Date:

Thursday, November 14, 2019

  Actual Average Record
Temperature  
Mean Temperature 24 °F -  
Max Temperature 34 °F 43 °F 59 °F (2010)
Min Temperature 15 °F 28 °F 15 °F (2019)
Degree Days  
Heating Degree Days 40    
Moisture  
Dew Point 16 °F    
Average Humidity 69    
Maximum Humidity 84    
Minimum Humidity 52    
Precipitation  
Precipitation 0.00 in - - ()
Sea Level Pressure  
Sea Level Pressure 30.36 in    
Wind  
Wind Speed 3 mph (SE)    
Max Wind Speed 9 mph    
Max Gust Speed -    
Visibility 10 miles    
Events      
Averages and records for this station are not official NWS values.
T = Trace of Precipitation, MM = Missing Value Source: NWS Daily Summary

Daily Weather History Graph

Daily Weather History Graph

Search for Another Location

Airport or City:

Astronomy

Nov. 14, 2019 Rise Set
Actual Time 6:46 AM EST 4:39 PM EST
Civil Twilight 6:17 AM EST 5:09 PM EST
Nautical Twilight 5:43 AM EST 5:43 PM EST
Astronomical Twilight 5:10 AM EST 6:15 PM EST
Moon 6:22 PM EST (11/14) 8:40 AM EST (11/14)
Length of Visible Light 10h 52m
Length of Day
9h 53m
Waning Gibbous, 95% of the Moon is Illuminated
Nov 14
Waning Gibbous
Nov 19
Last Quarter
Nov 26
New
Dec 4
First Quarter
Dec 12
Full

Hourly Weather History & Observations

Time (EST) Temp. Windchill Dew Point Humidity Pressure Visibility Wind Dir Wind Speed Gust Speed Precip Events Conditions
12:56 AM 16.0 °F - 10.9 °F 81% 30.43 in 10.0 mi Calm Calm - N/A   Partly Cloudy
1:56 AM 15.1 °F 7.7 °F 10.9 °F 84% 30.43 in 10.0 mi East 4.6 mph - N/A   Clear
2:56 AM 17.1 °F 10.0 °F 10.0 °F 74% 30.41 in 10.0 mi East 4.6 mph - N/A   Clear
3:56 AM 16.0 °F 10.4 °F 10.0 °F 77% 30.40 in 10.0 mi East 3.5 mph - N/A   Clear
4:56 AM 16.0 °F - 10.9 °F 81% 30.40 in 10.0 mi Calm Calm - N/A   Clear
5:56 AM 16.0 °F 8.8 °F 10.9 °F 81% 30.41 in 10.0 mi ENE 4.6 mph - N/A   Partly Cloudy
6:56 AM 16.0 °F - 10.9 °F 81% 30.43 in 10.0 mi Calm Calm - N/A   Partly Cloudy
7:56 AM 19.0 °F 13.9 °F 12.0 °F 74% 30.44 in 10.0 mi East 3.5 mph - N/A   Mostly Cloudy
8:56 AM 23.0 °F 13.1 °F 12.9 °F 65% 30.43 in 10.0 mi SE 9.2 mph - N/A   Clear
9:56 AM 26.1 °F 18.4 °F 12.9 °F 58% 30.41 in 10.0 mi SSE 6.9 mph - N/A   Mostly Cloudy
10:56 AM 30.0 °F 21.7 °F 16.0 °F 56% 30.39 in 10.0 mi South 9.2 mph - N/A   Mostly Cloudy
11:56 AM 30.9 °F 23.5 °F 18.0 °F 59% 30.37 in 10.0 mi SSE 8.1 mph - N/A   Overcast
12:56 PM 34.0 °F 27.2 °F 18.0 °F 52% 30.35 in 10.0 mi SSW 8.1 mph - N/A   Overcast
1:56 PM 33.1 °F 27.7 °F 17.1 °F 52% 30.34 in 10.0 mi Variable 5.8 mph - N/A   Overcast
2:56 PM 32.0 °F 26.4 °F 17.1 °F 54% 30.33 in 10.0 mi South 5.8 mph - N/A   Mostly Cloudy
3:56 PM 30.9 °F 27.5 °F 19.0 °F 61% 30.32 in 10.0 mi South 3.5 mph - N/A   Overcast
4:56 PM 30.9 °F 26.2 °F 19.0 °F 61% 30.32 in 10.0 mi SSE 4.6 mph - N/A   Overcast
5:56 PM 30.0 °F 26.5 °F 19.9 °F 66% 30.32 in 10.0 mi South 3.5 mph - N/A   Partly Cloudy
6:56 PM 28.9 °F - 19.0 °F 67% 30.32 in 10.0 mi Calm Calm - N/A   Partly Cloudy
7:56 PM 28.0 °F 24.2 °F 19.9 °F 72% 30.31 in 10.0 mi North 3.5 mph - N/A   Overcast
8:56 PM 27.0 °F - 19.9 °F 75% 30.31 in 10.0 mi Calm Calm - N/A   Overcast
9:56 PM 28.0 °F 24.2 °F 21.0 °F 75% 30.30 in 10.0 mi NNW 3.5 mph - N/A   Overcast
10:56 PM 27.0 °F - 19.9 °F 75% 30.29 in 10.0 mi Calm Calm - N/A   Partly Cloudy
11:56 PM 24.1 °F - 18.0 °F 77% 30.28 in 10.0 mi Calm Calm - N/A   Clear